Weather Roundup
Issued by NWS Corpus Christi, TX

Home | Current Version | Previous Version | Text Only | Print | Product List | Glossary On
Versions: 1 2 3 4 5 6 7 8 9 10 11 12 13 14 15 16 17 18 19 20 21 22 23 24 25 26 27 28 29 30 31 32 33 34 35 36 37 38 39 40 41 42 43 44 45 46 47 48 49 50
000
ASUS44 KCRP 310510
HRRCRP

SOUTH TEXAS REGIONAL WEATHER ROUNDUP
NATIONAL WEATHER SERVICE CORPUS CHRISTI TX
1200 AM CDT FRI OCT 31 2014


TXZ229>244-310600-
...CORPUS CHRISTI AREA OBSERVATIONS...

CITY           SKY/WX    TMP DP  RH WIND       PRES   REMARKS
CORPUS CHRISTI PTCLDY    72  69  90 SE7       30.08S
NAS CORPUS CHR CLEAR     74  72  93 SE9       30.07F
ROCKPORT       CLEAR     74  69  85 SE7       30.08S
KINGSVILLE NAS PTCLDY    70  70 100 E5        30.08S
ALICE          CLEAR     70  68  93 SE5       30.08S
FALFURRIAS     CLEAR     69  67  92 CALM      30.08S
$$

...VICTORIA AREA OBSERVATIONS...

CITY           SKY/WX    TMP DP  RH WIND       PRES   REMARKS
VICTORIA       CLEAR     69  66  90 CALM      30.09S
BEEVILLE       FAIR      68  68 100 SE3       30.09R FOG
PLEASANTON     CLEAR     68  63  83 CALM      30.11R
SAN ANTONIO    PTCLDY    70  63  78 E5        30.12R
$$

...LAREDO AREA OBSERVATIONS...

CITY           SKY/WX    TMP DP  RH WIND       PRES   REMARKS
LAREDO         CLEAR     75  66  73 SE9       30.10S
COTULLA        CLEAR     75  65  70 SE8       30.09R
DEL RIO        CLEAR     70  61  73 CALM      30.08S
MCALLEN        CLEAR     72  68  87 SE5       30.08S
HEBBRONVILLE   CLEAR     70  65  85 E3        30.11S
$$

...OTHER TEXAS OBSERVATIONS...

CITY           SKY/WX    TMP DP  RH WIND       PRES   REMARKS
BROWNSVILLE    CLEAR     72  70  93 E3        30.07S
HOUSTON        PTCLDY    60  55  83 CALM      30.09S
COL. STATION   PTCLDY    65  51  60 NE5       30.11S
AUSTIN         CLOUDY    66  61  84 CALM      30.11R
WACO           CLOUDY    66  56  70 NW6       30.15R
FORT WORTH     CLEAR     63  53  70 N9        30.17R
WICHITA FALLS  CLEAR     56  37  49 N9        30.23R
LUBBOCK        CLEAR     47  33  58 NE10      30.32R
EL PASO        PTCLDY    68  32  26 VRB5      30.23R
$$

...MARINE OBSERVATIONS...

STATION/POSITION TIME  SKY/WX   TEMP    WIND        PRES    VSBY  WAVE   SWELL
                                AIR SEA DIR/SP/G                  HT/PER HT/PER
                 (UTC)          (F)     (DEG/KT/KT) (MB)    (MI)  (FT/S) (FT/S)
PORT ARANSAS     0500            77 79  120/  9/ 10 1018.9F
BUOY 90 E PORT A 0500            74 79   60/  6/  8 1018.7F         2/ 4   2/ 5
BUOY 45 SE BAFFI 0500            77 80   80/ 10/ 12 1018.1R         2/ 5   2/ 5
BUOY 200 E PT IS 0500            77 80   10/ 14/ 16 1017.3S         3/ 5   2/ 7
BUOY 15 E GALVES 0500            73 77   50/  6/  8 1018.4S         1/ 4   2/ 4
$$



USA.gov is the U.S. government's official web portal to all federal, state and local government web resources and services.